Year,Month,Day,Hour,Minute,Value (Times are PST for temperature in C)
2009,07,08,09,48,11.80
2009,07,08,09,49,11.90
2009,07,08,09,50,11.90
2009,07,08,09,51,11.90
2009,07,08,09,52,11.90
2009,07,08,09,53,11.90
2009,07,08,09,54,11.90
2009,07,08,09,55,11.90
2009,07,08,09,56,11.90
2009,07,08,09,57,11.90
2009,07,08,09,58,11.90
2009,07,08,09,59,12.00
2009,07,08,10,00,12.00
2009,07,08,10,01,12.00
2009,07,08,10,02,12.00
2009,07,08,10,03,12.10
2009,07,08,10,04,12.10
2009,07,08,10,05,12.20
2009,07,08,10,06,12.20
2009,07,08,10,07,12.20
2009,07,08,10,08,12.20
2009,07,08,10,09,12.20
2009,07,08,10,10,12.20
2009,07,08,10,11,12.20
2009,07,08,10,12,12.20
2009,07,08,10,13,12.20
2009,07,08,10,14,12.20
2009,07,08,10,15,12.20
2009,07,08,10,16,12.20
2009,07,08,10,17,12.20
2009,07,08,10,18,12.20
2009,07,08,10,19,12.20
2009,07,08,10,20,12.20
2009,07,08,10,21,12.20
2009,07,08,10,22,12.20
2009,07,08,10,23,12.20
2009,07,08,10,24,12.20
2009,07,08,10,25,12.20
2009,07,08,10,26,12.20
2009,07,08,10,27,12.30
2009,07,08,10,28,12.30
2009,07,08,10,29,12.30
2009,07,08,10,30,12.30
2009,07,08,10,31,12.30
2009,07,08,10,32,12.30
2009,07,08,10,33,12.30
2009,07,08,10,34,12.40
2009,07,08,10,35,12.40
2009,07,08,10,36,12.40
2009,07,08,10,37,12.40
2009,07,08,10,38,12.40
2009,07,08,10,39,12.50
2009,07,08,10,40,12.50
2009,07,08,10,41,12.50
2009,07,08,10,42,12.50
2009,07,08,10,43,12.50
2009,07,08,10,44,12.60
2009,07,08,10,45,12.60
2009,07,08,10,46,12.60
2009,07,08,10,47,12.70
2009,07,08,10,48,12.60
2009,07,08,10,49,12.60
2009,07,08,10,50,12.60
2009,07,08,10,51,12.60
2009,07,08,10,52,12.60
2009,07,08,10,53,12.70
2009,07,08,10,54,12.70
2009,07,08,10,55,12.70
2009,07,08,10,56,12.70
2009,07,08,10,57,12.70
2009,07,08,10,58,12.80
2009,07,08,10,59,12.80
2009,07,08,11,00,12.80
2009,07,08,11,01,12.80
2009,07,08,11,02,12.70
2009,07,08,11,03,12.70
2009,07,08,11,04,12.70
2009,07,08,11,05,12.70
2009,07,08,11,06,12.80
2009,07,08,11,07,12.80
2009,07,08,11,08,12.80
2009,07,08,11,09,12.80
2009,07,08,11,10,12.70
2009,07,08,11,11,12.70
2009,07,08,11,12,12.70
2009,07,08,11,13,12.70
2009,07,08,11,14,12.60
2009,07,08,11,15,12.60
2009,07,08,11,16,12.70
2009,07,08,11,17,12.70
2009,07,08,11,18,12.70
2009,07,08,11,19,12.70
2009,07,08,11,20,12.70
2009,07,08,11,21,12.80
2009,07,08,11,22,12.80
2009,07,08,11,23,12.80
2009,07,08,11,24,12.80
2009,07,08,11,25,12.80
2009,07,08,11,26,12.80
2009,07,08,11,27,12.80
2009,07,08,11,28,12.80
2009,07,08,11,29,12.80
2009,07,08,11,30,12.80
2009,07,08,11,31,12.80
2009,07,08,11,32,12.90
2009,07,08,11,33,12.90
2009,07,08,11,34,12.90
2009,07,08,11,35,12.90
2009,07,08,11,36,12.90
2009,07,08,11,37,12.90
2009,07,08,11,38,12.90
2009,07,08,11,39,12.90
2009,07,08,11,40,13.00
2009,07,08,11,41,13.00
2009,07,08,11,42,12.90
2009,07,08,11,43,12.90
2009,07,08,11,44,12.90
2009,07,08,11,45,12.90
2009,07,08,11,46,12.90
2009,07,08,11,47,12.90
2009,07,08,11,48,12.90
2009,07,08,11,49,12.90
2009,07,08,11,50,12.90
2009,07,08,11,51,12.90
2009,07,08,11,52,12.90
2009,07,08,11,53,12.90
2009,07,08,11,54,12.90
2009,07,08,11,55,12.90
2009,07,08,11,56,12.90
2009,07,08,11,57,12.80
2009,07,08,11,58,12.80
2009,07,08,11,59,12.80
2009,07,08,12,00,12.90
2009,07,08,12,01,12.90
2009,07,08,12,02,12.90
2009,07,08,12,03,12.90
2009,07,08,12,04,12.80
2009,07,08,12,05,12.80
2009,07,08,12,06,12.80
2009,07,08,12,07,12.80
2009,07,08,12,08,12.80
2009,07,08,12,09,12.80
2009,07,08,12,10,12.80
2009,07,08,12,11,12.90
2009,07,08,12,12,12.90
2009,07,08,12,13,12.80
2009,07,08,12,14,12.80
2009,07,08,12,15,12.80
2009,07,08,12,16,12.80
2009,07,08,12,17,12.80
2009,07,08,12,18,12.70
2009,07,08,12,19,12.70
2009,07,08,12,20,12.70
2009,07,08,12,21,12.70
2009,07,08,12,22,12.70
2009,07,08,12,23,12.70
2009,07,08,12,24,12.80
2009,07,08,12,25,12.80
2009,07,08,12,26,12.80
2009,07,08,12,27,12.80
2009,07,08,12,28,12.80
2009,07,08,12,29,12.80
2009,07,08,12,30,12.80
2009,07,08,12,31,12.80
2009,07,08,12,32,12.80
2009,07,08,12,33,12.80
2009,07,08,12,34,12.80
2009,07,08,12,35,12.80
2009,07,08,12,36,12.80
2009,07,08,12,37,12.80
2009,07,08,12,38,12.70
2009,07,08,12,39,12.70
2009,07,08,12,40,12.70
2009,07,08,12,41,12.70
2009,07,08,12,42,12.80
2009,07,08,12,43,12.80
2009,07,08,12,44,12.70
2009,07,08,12,45,12.70
2009,07,08,12,46,12.70
2009,07,08,12,47,12.70
2009,07,08,12,48,12.70
2009,07,08,12,49,12.70
2009,07,08,12,50,12.70
2009,07,08,12,51,12.80
2009,07,08,12,52,12.80
2009,07,08,12,53,12.70
2009,07,08,12,54,12.70
2009,07,08,12,55,12.70
2009,07,08,12,56,12.70
2009,07,08,12,57,12.70
2009,07,08,12,58,12.60
2009,07,08,12,59,12.60
2009,07,08,13,00,12.60
2009,07,08,13,01,12.60
2009,07,08,13,02,12.60
2009,07,08,13,03,12.60
2009,07,08,13,04,12.60
2009,07,08,13,05,12.60
2009,07,08,13,06,12.60
2009,07,08,13,07,12.60
2009,07,08,13,08,12.60
2009,07,08,13,09,12.60
2009,07,08,13,10,12.70
2009,07,08,13,11,12.70
2009,07,08,13,12,12.70
2009,07,08,13,13,12.70
2009,07,08,13,14,12.80
2009,07,08,13,15,12.80
2009,07,08,13,16,12.80
2009,07,08,13,17,12.70
2009,07,08,13,18,12.70
2009,07,08,13,19,12.70
2009,07,08,13,20,12.60
2009,07,08,13,21,12.70
2009,07,08,13,22,12.60
2009,07,08,13,23,12.60
2009,07,08,13,24,12.60
2009,07,08,13,25,12.70
2009,07,08,13,26,12.70
2009,07,08,13,27,12.70
2009,07,08,13,28,12.80
2009,07,08,13,29,12.90
2009,07,08,13,30,12.90
2009,07,08,13,31,12.90
2009,07,08,13,32,12.90
2009,07,08,13,33,12.90
2009,07,08,13,34,12.80
2009,07,08,13,35,12.90
2009,07,08,13,36,12.90
2009,07,08,13,37,12.90
2009,07,08,13,38,12.90
2009,07,08,13,39,13.00
2009,07,08,13,40,13.10
2009,07,08,13,41,13.10
2009,07,08,13,42,13.10
2009,07,08,13,43,13.10
2009,07,08,13,44,13.10
2009,07,08,13,45,13.20
2009,07,08,13,46,13.30
2009,07,08,13,47,13.30
2009,07,08,13,48,13.30
2009,07,08,13,49,13.30
2009,07,08,13,50,13.20
2009,07,08,13,51,13.20
2009,07,08,13,52,13.20
2009,07,08,13,53,13.30
2009,07,08,13,54,13.30
2009,07,08,13,55,13.30
2009,07,08,13,56,13.30
2009,07,08,13,57,13.30
2009,07,08,13,58,13.30
2009,07,08,13,59,13.30
2009,07,08,14,00,13.30
2009,07,08,14,01,13.40
2009,07,08,14,02,13.40
2009,07,08,14,03,13.30
2009,07,08,14,04,13.30
2009,07,08,14,05,13.30
2009,07,08,14,06,13.40
2009,07,08,14,07,13.40
2009,07,08,14,08,13.40
2009,07,08,14,09,13.40
2009,07,08,14,10,13.40
2009,07,08,14,11,13.40
2009,07,08,14,12,13.30
2009,07,08,14,13,13.30
2009,07,08,14,14,13.40
2009,07,08,14,15,13.40
2009,07,08,14,16,13.30
2009,07,08,14,17,13.40
2009,07,08,14,18,13.40
2009,07,08,14,19,13.50
2009,07,08,14,20,13.60
2009,07,08,14,21,13.60
2009,07,08,14,22,13.60
2009,07,08,14,23,13.60
2009,07,08,14,24,13.60
2009,07,08,14,25,13.50
2009,07,08,14,26,13.50
2009,07,08,14,27,13.50
2009,07,08,14,28,13.50
2009,07,08,14,29,13.50
2009,07,08,14,30,13.60
2009,07,08,14,31,13.60
2009,07,08,14,32,13.60
2009,07,08,14,33,13.60
2009,07,08,14,34,13.60
2009,07,08,14,35,13.60
2009,07,08,14,36,13.50
2009,07,08,14,37,13.50
2009,07,08,14,38,13.50
2009,07,08,14,39,13.50
2009,07,08,14,40,13.40
2009,07,08,14,41,13.40
2009,07,08,14,42,13.40
2009,07,08,14,43,13.30
2009,07,08,14,44,13.30
2009,07,08,14,45,13.30
2009,07,08,14,46,13.40
2009,07,08,14,47,13.40
2009,07,08,14,48,13.40
2009,07,08,14,49,13.40
2009,07,08,14,50,13.40
2009,07,08,14,51,13.50
2009,07,08,14,52,13.60
2009,07,08,14,53,13.60
2009,07,08,14,54,13.60
2009,07,08,14,55,13.60
2009,07,08,14,56,13.60
2009,07,08,14,57,13.60
2009,07,08,14,58,13.60
2009,07,08,14,59,13.60
2009,07,08,15,00,13.70
2009,07,08,15,01,13.70
2009,07,08,15,02,13.70
2009,07,08,15,03,13.80
2009,07,08,15,04,13.80
2009,07,08,15,05,13.90
2009,07,08,15,06,13.90
2009,07,08,15,07,13.90
2009,07,08,15,08,13.80
2009,07,08,15,09,13.80
2009,07,08,15,10,13.80
2009,07,08,15,11,13.90
2009,07,08,15,12,13.90
2009,07,08,15,13,13.90
2009,07,08,15,14,13.90
2009,07,08,15,15,13.80
2009,07,08,15,16,13.70
2009,07,08,15,17,13.70
2009,07,08,15,18,13.70
2009,07,08,15,19,13.60
2009,07,08,15,20,13.60
2009,07,08,15,21,13.70
2009,07,08,15,22,13.70
2009,07,08,15,23,13.70
2009,07,08,15,24,13.70
2009,07,08,15,25,13.70
2009,07,08,15,26,13.70
2009,07,08,15,27,13.70
2009,07,08,15,28,13.70
2009,07,08,15,29,13.70
2009,07,08,15,30,13.70
2009,07,08,15,31,13.70
2009,07,08,15,32,13.60
2009,07,08,15,33,13.60
2009,07,08,15,34,13.50
2009,07,08,15,35,13.50
2009,07,08,15,36,13.50
2009,07,08,15,37,13.60
2009,07,08,15,38,13.60
2009,07,08,15,39,13.70
2009,07,08,15,40,13.80
2009,07,08,15,41,13.80
2009,07,08,15,42,13.80
2009,07,08,15,43,13.80
2009,07,08,15,44,13.80
2009,07,08,15,45,13.80
2009,07,08,15,46,13.80
2009,07,08,15,47,13.80
2009,07,08,15,48,13.90
2009,07,08,15,49,13.90
2009,07,08,15,50,13.90
2009,07,08,15,51,14.00
2009,07,08,15,52,14.00
2009,07,08,15,53,14.00
2009,07,08,15,54,14.00
2009,07,08,15,55,14.00
2009,07,08,15,56,14.00
2009,07,08,15,57,14.00
2009,07,08,15,58,13.90
2009,07,08,15,59,13.90
2009,07,08,16,00,13.90
2009,07,08,16,01,13.90
2009,07,08,16,02,13.80
2009,07,08,16,03,13.80
2009,07,08,16,04,13.70
2009,07,08,16,05,13.70
2009,07,08,16,06,13.70
2009,07,08,16,07,13.70
2009,07,08,16,08,13.70
2009,07,08,16,09,13.70
2009,07,08,16,10,13.70
2009,07,08,16,11,13.70
2009,07,08,16,12,13.60
2009,07,08,16,13,13.60
2009,07,08,16,14,13.60
2009,07,08,16,15,13.60
2009,07,08,16,16,13.60
2009,07,08,16,17,13.60
2009,07,08,16,18,13.60
2009,07,08,16,19,13.50
2009,07,08,16,20,13.50
2009,07,08,16,21,13.50
2009,07,08,16,22,13.50
2009,07,08,16,23,13.60
2009,07,08,16,24,13.60
2009,07,08,16,25,13.70
2009,07,08,16,26,13.70
2009,07,08,16,27,13.70
2009,07,08,16,28,13.70
2009,07,08,16,29,13.70
2009,07,08,16,30,13.70
2009,07,08,16,31,13.80
2009,07,08,16,32,13.80
2009,07,08,16,33,13.80
2009,07,08,16,34,13.80
2009,07,08,16,35,13.70
2009,07,08,16,36,13.70
2009,07,08,16,37,13.60
2009,07,08,16,38,13.60
2009,07,08,16,39,13.60
2009,07,08,16,40,13.60
2009,07,08,16,41,13.60
2009,07,08,16,42,13.60
2009,07,08,16,43,13.60
2009,07,08,16,44,13.60
2009,07,08,16,45,13.60
2009,07,08,16,46,13.60
2009,07,08,16,47,13.60
2009,07,08,16,48,13.60
2009,07,08,16,49,13.60
2009,07,08,16,50,13.50
2009,07,08,16,51,13.50
2009,07,08,16,52,13.50
2009,07,08,16,53,13.50
2009,07,08,16,54,13.60
2009,07,08,16,55,13.60
2009,07,08,16,56,13.60
2009,07,08,16,57,13.60
2009,07,08,16,58,13.60
2009,07,08,16,59,13.60
2009,07,08,17,00,13.60
2009,07,08,17,01,13.70
2009,07,08,17,02,13.70
2009,07,08,17,03,13.60
2009,07,08,17,04,13.70
2009,07,08,17,05,13.70
2009,07,08,17,06,13.70
2009,07,08,17,07,13.70
2009,07,08,17,08,13.70
2009,07,08,17,09,13.70
2009,07,08,17,10,13.70
2009,07,08,17,11,13.80
2009,07,08,17,12,13.80
2009,07,08,17,13,13.80
2009,07,08,17,14,13.80
2009,07,08,17,15,13.80
2009,07,08,17,16,13.80
2009,07,08,17,17,13.80
2009,07,08,17,18,13.80
2009,07,08,17,19,13.80
2009,07,08,17,20,13.80
2009,07,08,17,21,13.80
2009,07,08,17,22,13.80
2009,07,08,17,23,13.80
2009,07,08,17,24,13.80
2009,07,08,17,25,13.80
2009,07,08,17,26,13.80
2009,07,08,17,27,13.80
2009,07,08,17,28,13.80
2009,07,08,17,29,13.80
2009,07,08,17,30,13.70
2009,07,08,17,31,13.70
2009,07,08,17,32,13.70
2009,07,08,17,33,13.70
2009,07,08,17,34,13.70
2009,07,08,17,35,13.70
2009,07,08,17,36,13.70
2009,07,08,17,37,13.70
2009,07,08,17,38,13.70
2009,07,08,17,39,13.60
2009,07,08,17,40,13.60
2009,07,08,17,41,13.60
2009,07,08,17,42,13.60
2009,07,08,17,43,13.70
2009,07,08,17,44,13.70
2009,07,08,17,45,13.70
2009,07,08,17,46,13.70
2009,07,08,17,47,13.60
2009,07,08,17,48,13.60
2009,07,08,17,49,13.60
2009,07,08,17,50,13.60
2009,07,08,17,51,13.60
2009,07,08,17,52,13.60
2009,07,08,17,53,13.60
2009,07,08,17,54,13.60
2009,07,08,17,55,13.60
2009,07,08,17,56,13.60
2009,07,08,17,57,13.60
2009,07,08,17,58,13.60
2009,07,08,17,59,13.60
2009,07,08,18,00,13.60
2009,07,08,18,01,13.60
2009,07,08,18,02,13.60
2009,07,08,18,03,13.60
2009,07,08,18,04,13.60
2009,07,08,18,05,13.60
2009,07,08,18,06,13.60
2009,07,08,18,07,13.60
2009,07,08,18,08,13.70
2009,07,08,18,09,13.70
2009,07,08,18,10,13.70
2009,07,08,18,11,13.70
2009,07,08,18,12,13.70
2009,07,08,18,13,13.80
2009,07,08,18,14,13.80
2009,07,08,18,15,13.80
2009,07,08,18,16,13.80
2009,07,08,18,17,13.80
2009,07,08,18,18,13.80
2009,07,08,18,19,13.80
2009,07,08,18,20,13.90
2009,07,08,18,21,13.90
2009,07,08,18,22,13.90
2009,07,08,18,23,13.90
2009,07,08,18,24,13.90
2009,07,08,18,25,13.90
2009,07,08,18,26,13.90
2009,07,08,18,27,13.90
2009,07,08,18,28,13.90
2009,07,08,18,29,14.00
2009,07,08,18,30,14.00
2009,07,08,18,31,14.00
2009,07,08,18,32,13.90
2009,07,08,18,33,13.90
2009,07,08,18,34,13.90
2009,07,08,18,35,13.90
2009,07,08,18,36,13.90
2009,07,08,18,37,13.90
2009,07,08,18,38,13.90
2009,07,08,18,39,13.90
2009,07,08,18,40,13.90
2009,07,08,18,41,13.90
2009,07,08,18,42,13.90
